< < Back
Terminal Aerodrome Forecast


Current Version              Previous Versions:   1  2  3  4  5  6  7  8  9  

Terminal Aerodrome Forecast

508
FTUS42 KFFC 261121
TAFAHN
TAF
KAHN 261121Z 2612/2712 07007KT P6SM SCT016
      TEMPO 2612/2615 BKN016
     FM261500 09010KT P6SM SCT025
     FM261700 10009KT P6SM SCT040
     FM270200 12003KT P6SM SCT070=



Latest METAR

464
SAUS70 KWBC 261054
MTRAHN
METAR KAHN 261051Z AUTO 06005KT 10SM CLR 23/21 A3017 RMK AO2 SLP206
T02330206


USA.gov is the U.S. government's official web portal to all federal, state and local government web resources and services.